Regional Weather Roundup
Issued by NWS Jackson, KY

Home | Current Version | Previous Version | Text Only | Print | Product List | Glossary On
Versions: 1 2 3 4 5 6 7 8 9 10 11 12 13 14 15 16 17 18 19 20 21 22 23 24 25 26 27 28 29 30 31 32 33 34 35 36 37 38 39 40 41 42 43 44 45 46 47 48 49 50
000
ASUS43 KJKL 271210
RWRJKL

EAST KENTUCKY HOURLY WEATHER ROUNDUP
NATIONAL WEATHER SERVICE JACKSON KY
700 AM EST FRI FEB 27 2015

NOTE: "FAIR" INDICATES FEW OR NO CLOUDS BELOW 12,000 FEET WITH
NO SIGNIFICANT WEATHER AND/OR OBSTRUCTIONS TO VISIBILITY.

* THESE REPORTS ARE NOT UNDER NWS QUALITY CONTROL AND MAY NOT
  REPORT WEATHER SUCH AS PRECIPITATION AND FOG.

KYZ079-080-083-085-087-088-110-112-115-119-120-271300
...EASTERN KENTUCKY...

CITY           SKY/WX    TMP DP  RH WIND       PRES   REMARKS
JACKSON        MOCLDY    12   4  70 VRB6      30.39R WCI   3
6HR MIN TEMP:  12; 6HR MAX TEMP:  20; 6HR PCP: TRACE;

LONDON         MOCLDY    15   6  67 N8        30.42R WCI   4
6HR MIN TEMP:  15; 6HR MAX TEMP:  24; 6HR PCP: TRACE;

SOMERSET*      PTCLDY    12   7  79 N5        30.47R WCI   4
MONTICELLO*    CLEAR     15   5  64 N8        30.48R WCI   4
6HR MIN TEMP:  15; 6HR MAX TEMP:  23; 6HR PCP: TRACE;

MIDDLESBORO*   FLURRIES  21  15  78 N9        30.39R WCI  11
6HR MIN TEMP:  21; 6HR MAX TEMP:  29;

HAZARD APT*    PTSUNNY   16   9  73 N3        30.40R
BLACK MTN*       N/A     10  10 100 NW6         N/A  WCI   1
PIKEVILLE APT* FLURRIES  16  10  79 NW6       30.37R WCI   7
BIG SANDY*     FLURRIES  15  10  77 N6        30.40R WCI   7
6HR MIN TEMP:  15; 6HR MAX TEMP:  22;

MOREHEAD APT*  SUNNY      9   1  72 CALM      30.48R
$$

KYZ035-036-041-042-044-050-067-078-099-271300
...CENTRAL KENTUCKY...

CITY           SKY/WX    TMP DP  RH WIND       PRES   REMARKS
MT STERLING*   PTCLDY     9   5  85 CALM      30.47R
FLEMING/MASON* CLEAR      7   3  85 CALM      30.49R
DANVILLE*      PTCLDY     7   3  85 N3        30.47R
RICHMOND*      PTCLDY     9   5  85 N3        30.45S
LEXINGTON      PTCLDY     8   3  80 N3        30.46R
6HR MIN TEMP:   7; 6HR MAX TEMP:  14;

FRANKFORT      CLOUDY     9   5  84 NW5       30.47S WCI   1
6HR MIN TEMP:   7; 6HR MAX TEMP:  14;

$$

KYZ091>093-OHZ055-061-077-WVZ005-015-034-035-042-271300
...SOUTHERN OHIO/WEST VIRGINIA...

CITY           SKY/WX    TMP DP  RH WIND       PRES   REMARKS
COVINGTON      PTCLDY     6   1  80 NW6       30.48R WCI  -4
COLUMBUS       PTCLDY     6   2  83 CALM      30.45R
DAYTON         LGT SNOW   5   0  79 NW5       30.45R WCI  -4
WILMINGTON     LGT SNOW   7   3  84 CALM      30.44R FOG
HUNTINGTON     PTCLDY    11   5  77 N7        30.46R WCI   0
CHARLESTON     LGT SNOW  14   7  73 NW10      30.41R WCI   1
PINEVILLE*     LGT SNOW  21  18  86 MISG      30.35R
BECKLEY        LGT SNOW  15  10  80 NW9       30.24R WCI   3
BLUEFIELD      LGT SNOW  20  14  77 W9        30.21R WCI   9
$$

VAZ002-007-008-TNZ017-027-036-066-071-271300
...SOUTHWEST VIRGINIA/EAST TENNESSEE...

CITY           SKY/WX    TMP DP  RH WIND       PRES   REMARKS
WISE*          FLURRIES  19  14  79 NW8       30.25R WCI   9
JONESVILLE*    CLOUDY    23  18  80 NW6       30.36R WCI  16
ABINGDON*      FLURRIES  25  19  77 N5        30.25R WCI  19
BRISTOL        FLURRIES  30  15  53 N5        30.29R WCI  25
KNOXVILLE      CLOUDY    27  20  75 N14       30.35R WCI  16
OAK RIDGE      PTCLDY    25  16  68 N3        30.38R
CROSSVILLE     CLOUDY    18  10  71 N13       30.35R WCI   5
NASHVILLE      PTCLDY    19  13  77 N9        30.49R WCI   8
$$

...KEY TO REMARKS...
VSB - VISIBILITY IN MILES
WCI - WIND CHILL INDEX
HX  - HEAT INDEX

$$


USA.gov is the U.S. government's official web portal to all federal, state and local government web resources and services.